Wind_Speed
15 12 11 10 8 7 7 6 4 2 1 2 4 4 5 5 5 5 5 3 2 3 5 5 6 7 6 5 7 9 10 10 9 10 10 10 11 11 11 12 13 14
14 12 11 10 9 9 9 7 5 3 1 2 3 4 6 7 7 7 5 4 3 3 4 5 7 7 6 6 7 8 10 9 9 11 12 12 12 12 12 13 14 15
14 12 11 10 8 9 10 8 5 3 2 3 3 3 5 6 6 6 5 4 4 3 4 4 6 7 7 7 8 8 9 10 10 11 12 13 12 13 13 14 15 16
15 12 10 10 9 10 11 9 6 4 4 4 4 4 4 4 5 5 5 4 3 3 4 4 5 6 8 9 9 9 9 10 11 11 12 12 12 13 14 14 14 14
14 12 12 11 11 12 12 9 7 6 5 4 4 4 4 3 4 4 4 4 4 4 5 4 5 6 8 9 9 9 10 11 11 11 11 12 13 13 14 13 12 12
15 15 15 14 13 13 12 10 8 8 6 5 4 4 4 3 4 4 4 5 5 6 6 5 5 7 8 8 9 9 9 10 12 12 12 12 13 13 13 12 11 11
18 18 17 16 15 14 13 11 10 9 7 5 5 5 4 3 3 4 4 5 5 7 7 6 5 7 7 8 8 9 9 10 11 12 13 12 13 13 12 12 11 10
20 19 17 16 16 15 14 13 11 10 8 6 6 6 5 5 5 5 5 6 6 8 8 7 5 6 7 8 8 9 10 11 12 13 13 13 13 13 13 13 12 12
20 18 16 16 15 14 13 12 11 10 9 7 7 7 6 7 7 6 6 7 8 9 9 8 7 6 7 7 8 9 10 12 13 14 14 13 14 14 14 14 14 14
19 18 17 16 15 14 13 12 11 11 9 7 7 8 8 8 7 7 7 8 9 11 10 10 9 8 7 8 8 9 9 10 12 14 14 14 14 15 15 17 17 16
20 18 18 17 16 15 14 13 12 12 10 8 8 8 8 8 8 8 8 9 10 11 11 11 9 8 8 9 10 10 10 10 12 14 14 14 14 15 15 16 18 18
20 19 18 18 18 17 15 14 13 12 10 9 9 9 9 8 8 8 7 7 7 9 11 11 10 9 10 10 11 12 11 12 13 14 13 13 14 14 13 14 16 18
22 22 22 21 20 18 17 16 15 13 11 10 10 9 9 9 9 8 7 5 4 5 8 11 11 10 10 11 12 13 13 14 15 15 14 14 14 14 14 13 14 16
28 26 25 24 21 19 19 19 17 15 13 12 11 10 9 9 9 9 7 5 4 3 4 8 10 10 11 12 13 14 14 15 16 16 15 15 16 16 15 14 14 15
30 27 26 24 22 21 21 20 18 15 13 12 11 10 10 9 9 9 9 7 6 5 4 5 7 9 11 13 14 14 15 16 16 16 16 16 16 17 17 16 15 16
29 27 27 26 23 21 20 19 18 16 14 13 12 11 11 10 9 9 9 9 8 7 6 6 6 6 8 11 14 15 15 16 17 17 17 17 18 18 18 18 18 18
29 27 27 24 21 19 18 18 18 16 15 14 13 13 12 11 10 8 9 9 10 9 8 8 7 5 5 7 11 13 15 17 18 18 19 19 19 20 20 20 20 20
28 26 24 21 19 19 19 19 18 18 18 17 15 14 14 13 11 10 9 10 10 10 10 10 10 9 8 7 8 10 12 15 17 18 20 21 21 21 22 22 22 22
25 25 24 22 22 21 20 20 20 20 20 19 18 16 16 16 15 13 12 12 12 12 13 13 12 12 12 12 12 12 12 13 15 16 19 21 22 23 24 25 25 25
22 22 22 23 23 21 19 20 22 21 21 20 19 18 18 18 18 17 15 15 15 15 15 15 15 15 15 16 17 18 18 18 18 18 19 19 20 22 23 24 25 26
20 20 21 22 21 19 18 18 20 20 20 20 19 19 19 20 20 21 20 19 18 18 18 18 17 17 17 17 18 19 22 23 24 24 24 23 22 22 23 23 24 24
19 19 19 19 17 16 15 15 16 16 17 17 18 19 20 20 21 22 22 22 21 21 22 21 19 18 17 18 18 18 20 23 25 28 29 29 29 28 27 27 26 26
16 15 16 16 15 15 15 15 15 15 15 15 15 17 18 19 20 20 21 22 22 23 25 25 23 22 22 21 21 21 21 21 22 24 27 31 33 33 33 33 32 32
10 10 11 12 12 13 13 12 12 12 13 13 13 13 14 14 15 16 18 18 19 20 23 24 25 25 26 26 26 26 26 26 24 23 23 26 29 32 35 36 37 37
3 2 2 2 4 6 7 7 8 9 9 10 11 12 12 12 13 13 14 15 16 17 20 21 22 22 23 24 25 25 26 28 28 28 27 27 26 27 29 32 34 36
3 3 4 4 4 5 7 8 9 8 8 9 11 12 12 13 14 14 15 16 16 17 19 21 22 22 22 22 23 23 24 25 26 27 28 29 28 26 25 26 27 29
Wind_Direction
207 223 227 210 188 163 149 142 136 124 64 322 310 306 292 276 266 272 284 277 235 184 194 211 209 208 225 224 199 191 192 194 193 187 184 185 188 189 191 191 192 193
209 220 219 203 180 164 158 153 150 150 184 267 280 288 285 275 264 265 269 253 227 209 209 224 228 232 237 224 203 191 187 191 192 184 181 185 191 192 189 185 183 184
205 212 209 200 185 170 165 159 157 172 216 239 246 270 286 278 258 251 246 237 237 236 225 219 225 229 221 208 202 195 192 196 195 186 181 183 186 183 178 177 178 181
199 208 207 199 189 176 170 165 165 185 219 234 230 250 282 277 250 239 233 239 252 247 233 214 208 210 202 198 200 199 198 200 198 190 181 176 172 167 165 166 169 173
198 204 202 193 186 178 174 171 177 194 212 227 230 244 274 276 256 249 251 264 264 249 238 215 193 191 191 192 194 195 195 196 196 190 182 175 167 162 161 158 156 161
196 200 197 190 186 182 179 179 188 197 204 217 229 243 258 262 263 263 265 272 261 244 238 219 188 181 184 186 188 191 191 192 191 186 184 181 172 168 168 164 161 161
196 198 193 188 188 187 184 188 195 201 205 213 226 236 238 234 244 248 251 260 251 237 232 222 192 180 186 191 191 193 192 190 188 184 187 186 177 173 176 178 184 182
198 196 193 190 191 191 190 194 201 207 212 218 225 227 220 216 222 225 231 241 240 233 226 219 206 191 196 202 200 199 197 193 191 189 193 195 188 184 186 191 199 202
197 196 197 197 198 197 198 203 211 217 220 225 227 225 218 215 217 219 227 232 232 227 220 218 224 217 209 212 211 208 205 202 200 200 204 207 205 203 203 203 207 209
196 198 201 205 207 209 212 217 223 228 231 233 231 227 222 218 216 217 224 228 225 222 218 218 228 230 220 218 219 216 217 217 213 211 214 218 221 222 220 215 213 211
198 202 203 208 212 214 219 224 229 235 238 237 232 229 227 220 214 214 217 219 219 217 217 219 223 225 220 219 221 220 222 226 222 217 218 223 227 229 226 218 213 212
201 206 207 210 212 213 217 221 226 231 232 232 232 231 228 218 208 202 196 190 198 209 215 219 220 219 216 216 218 217 219 222 219 215 215 218 221 221 218 211 207 210
200 207 210 210 209 210 213 214 215 218 216 219 227 226 221 213 200 189 177 163 164 191 209 215 215 211 209 210 212 212 213 213 209 206 207 209 211 211 208 205 206 209
199 206 208 208 208 210 213 210 205 206 207 213 222 217 207 205 198 191 192 192 188 183 198 209 207 201 201 204 206 207 207 205 203 202 204 207 206 207 207 205 206 210
202 204 204 205 209 213 214 207 198 201 207 211 215 204 192 196 200 203 213 219 218 210 202 208 206 204 206 206 205 205 204 204 206 206 206 209 208 209 211 211 210 213
202 204 203 206 210 209 206 201 195 198 203 202 200 193 187 195 206 216 223 228 229 224 221 223 220 213 217 218 215 213 211 210 213 215 216 217 218 217 218 218 219 221
203 206 203 201 199 194 196 198 195 194 193 189 190 193 195 202 210 218 226 229 231 233 237 242 242 238 236 235 232 231 228 225 224 225 227 229 230 230 229 228 229 230
199 198 194 190 187 188 190 190 186 189 190 188 192 199 203 205 208 215 223 226 229 235 244 250 255 256 253 250 252 250 247 243 240 239 239 240 242 244 244 244 243 242
187 188 187 187 188 192 193 188 184 189 194 194 198 204 207 207 208 213 220 224 228 233 241 247 252 255 255 254 255 256 256 254 252 251 250 250 252 254 254 253 252 251
177 180 181 184 187 191 194 189 186 191 197 200 203 208 213 213 211 211 215 221 227 231 236 240 244 247 250 251 253 255 255 254 255 255 255 255 257 259 260 259 258 258
158 162 163 169 178 188 193 190 189 196 203 206 206 208 214 216 213 212 214 217 222 227 231 237 242 245 248 249 249 251 252 252 253 253 254 257 258 259 261 262 264 266
142 147 147 150 158 169 176 177 181 191 201 207 209 210 215 217 214 214 216 218 220 224 228 232 235 242 250 251 250 250 249 249 250 251 251 253 255 257 259 260 262 264
130 134 137 141 150 157 160 162 168 177 184 191 199 207 213 217 218 219 222 225 226 228 232 235 236 240 247 250 250 250 250 249 250 251 251 250 251 253 255 257 258 259
126 134 137 143 153 158 157 160 168 176 181 185 189 195 202 209 215 221 227 233 234 234 236 239 239 240 243 246 247 248 248 249 250 252 252 252 253 253 253 254 256 256
102 136 165 167 165 168 170 178 185 188 195 199 202 205 208 212 218 223 229 235 237 236 237 239 239 239 240 243 245 246 248 249 250 253 253 253 254 256 256 256 256 256
309 303 290 291 276 248 239 245 246 239 233 231 229 227 227 229 232 234 237 240 241 240 240 241 243 243 242 243 244 246 248 251 252 255 256 255 255 256 257 258 259 260
Height
1527 1529 1530 1531 1532 1533 1534 1535 1536 1536 1537 1537 1537 1538 1538 1539 1539 1540 1541 1541 1542 1543 1543 1544 1545 1546 1547 1548 1548 1549 1550 1551 1551 1551 1552 1552 1553 1553 1554 1555 1556 1558
1528 1529 1531 1532 1533 1533 1535 1536 1537 1537 1537 1538 1538 1538 1539 1539 1540 1540 1541 1541 1542 1543 1543 1544 1545 1546 1547 1548 1548 1549 1550 1551 1551 1551 1552 1552 1553 1553 1554 1555 1556 1557
1529 1530 1531 1532 1533 1534 1535 1536 1537 1537 1538 1538 1538 1539 1539 1540 1540 1541 1541 1542 1542 1543 1543 1544 1545 1546 1547 1548 1549 1550 1550 1551 1551 1552 1552 1552 1553 1553 1554 1555 1555 1556
1529 1531 1532 1532 1533 1534 1536 1537 1538 1538 1538 1539 1539 1539 1540 1540 1541 1541 1542 1542 1542 1543 1543 1544 1545 1546 1547 1548 1549 1550 1551 1551 1552 1552 1552 1553 1553 1554 1554 1555 1556 1557
1529 1530 1531 1532 1533 1534 1536 1537 1538 1539 1539 1539 1539 1539 1540 1540 1540 1541 1542 1542 1542 1543 1543 1544 1546 1546 1548 1549 1550 1550 1551 1551 1551 1552 1552 1553 1553 1554 1555 1555 1556 1557
1528 1529 1530 1531 1532 1534 1536 1537 1538 1539 1539 1539 1539 1539 1539 1539 1540 1540 1541 1542 1542 1543 1544 1545 1546 1547 1548 1549 1550 1550 1551 1551 1552 1552 1553 1553 1554 1555 1555 1556 1557 1558
1527 1528 1529 1531 1532 1534 1536 1537 1538 1538 1538 1539 1539 1539 1539 1539 1540 1540 1541 1541 1542 1543 1544 1545 1546 1547 1548 1549 1550 1550 1551 1551 1552 1552 1553 1554 1555 1555 1556 1557 1558 1559
1526 1527 1529 1531 1532 1534 1535 1536 1537 1537 1538 1538 1539 1539 1539 1539 1540 1540 1541 1541 1542 1543 1544 1545 1546 1548 1548 1549 1550 1551 1551 1552 1552 1553 1554 1555 1556 1556 1557 1558 1559 1559
1525 1527 1529 1531 1532 1534 1535 1535 1536 1536 1537 1538 1538 1539 1540 1540 1540 1541 1541 1541 1542 1543 1544 1545 1547 1547 1548 1549 1550 1551 1551 1552 1553 1554 1555 1556 1556 1557 1558 1559 1560 1560
1526 1527 1528 1530 1532 1533 1534 1535 1536 1536 1537 1538 1539 1539 1540 1540 1541 1541 1542 1542 1543 1543 1545 1546 1546 1547 1548 1549 1550 1551 1551 1552 1553 1554 1555 1556 1557 1558 1559 1560 1560 1561
1525 1526 1528 1530 1531 1533 1534 1535 1535 1536 1537 1538 1539 1540 1541 1541 1541 1542 1542 1543 1543 1544 1545 1546 1546 1547 1548 1549 1550 1550 1551 1552 1553 1554 1555 1556 1557 1558 1558 1559 1560 1561
1525 1526 1528 1529 1531 1532 1533 1534 1535 1536 1537 1538 1539 1540 1541 1541 1542 1543 1543 1543 1544 1544 1545 1546 1546 1547 1548 1549 1549 1550 1551 1552 1552 1554 1555 1556 1557 1558 1558 1559 1560 1561
1525 1526 1527 1528 1530 1531 1532 1533 1534 1535 1536 1537 1538 1539 1540 1541 1542 1543 1544 1544 1545 1545 1546 1546 1546 1547 1548 1548 1549 1550 1551 1551 1552 1554 1555 1556 1557 1558 1559 1559 1560 1561
1524 1525 1526 1528 1529 1530 1531 1532 1533 1535 1535 1536 1538 1539 1540 1541 1542 1543 1544 1545 1545 1546 1546 1546 1547 1547 1548 1548 1549 1550 1551 1552 1553 1554 1555 1556 1557 1558 1559 1559 1560 1561
1523 1525 1526 1527 1528 1529 1530 1531 1533 1535 1536 1537 1538 1538 1540 1541 1543 1543 1544 1545 1545 1546 1546 1547 1547 1547 1548 1548 1549 1550 1551 1552 1553 1554 1555 1556 1557 1558 1558 1559 1560 1561
1524 1524 1525 1526 1527 1528 1530 1532 1533 1535 1536 1537 1537 1538 1540 1541 1542 1543 1544 1544 1545 1546 1546 1547 1548 1548 1548 1549 1550 1551 1552 1552 1553 1554 1555 1556 1556 1557 1558 1558 1559 1560
1524 1524 1524 1525 1527 1529 1531 1532 1533 1535 1536 1537 1537 1538 1539 1540 1541 1542 1543 1544 1545 1545 1546 1547 1548 1549 1549 1550 1550 1551 1552 1553 1553 1554 1555 1556 1556 1557 1557 1558 1559 1559
1522 1523 1524 1525 1527 1529 1530 1532 1534 1535 1536 1536 1537 1538 1539 1540 1541 1541 1542 1543 1544 1545 1546 1547 1548 1549 1549 1550 1551 1552 1552 1553 1554 1554 1555 1555 1556 1556 1557 1557 1558 1558
1520 1521 1523 1524 1526 1528 1529 1531 1533 1534 1535 1535 1536 1537 1537 1538 1539 1540 1541 1542 1542 1543 1544 1546 1547 1548 1549 1550 1551 1551 1552 1553 1553 1554 1554 1555 1555 1556 1556 1556 1557 1557
1519 1521 1522 1523 1525 1527 1528 1530 1532 1533 1533 1534 1534 1535 1536 1537 1538 1539 1540 1541 1541 1542 1543 1544 1546 1547 1548 1548 1549 1550 1551 1551 1552 1552 1553 1553 1554 1554 1555 1555 1555 1556
1519 1520 1520 1522 1524 1526 1527 1528 1530 1532 1532 1533 1534 1534 1535 1536 1537 1538 1538 1539 1539 1540 1541 1543 1544 1545 1546 1547 1547 1549 1549 1550 1550 1550 1551 1551 1552 1552 1553 1553 1554 1554
1519 1519 1519 1521 1523 1525 1526 1527 1529 1531 1531 1532 1533 1533 1534 1535 1536 1537 1537 1537 1538 1539 1539 1541 1542 1543 1544 1544 1545 1546 1546 1547 1547 1547 1547 1548 1548 1549 1550 1550 1551 1551
1520 1521 1521 1523 1524 1524 1525 1526 1528 1529 1530 1531 1532 1532 1533 1534 1535 1535 1535 1536 1537 1537 1537 1538 1540 1540 1540 1540 1541 1542 1542 1543 1543 1543 1544 1544 1544 1545 1546 1546 1547 1548
1523 1523 1523 1524 1524 1524 1525 1526 1527 1528 1529 1530 1531 1532 1532 1533 1533 1533 1533 1533 1535 1535 1535 1536 1537 1537 1537 1538 1538 1538 1538 1539 1539 1539 1539 1540 1540 1541 1542 1542 1543 1543
1524 1525 1525 1525 1525 1525 1525 1526 1527 1528 1529 1530 1530 1531 1531 1531 1531 1531 1531 1532 1532 1533 1533 1534 1534 1535 1535 1535 1536 1536 1536 1536 1536 1535 1535 1536 1536 1537 1537 1538 1539 1539
1525 1526 1527 1527 1528 1527 1527 1527 1527 1527 1527 1528 1528 1529 1529 1529 1529 1529 1530 1530 1531 1531 1532 1532 1532 1533 1533 1533 1533 1533 1533 1533 1533 1533 1533 1533 1533 1533 1533 1534 1534 1535